Starlink 32519

operational
NORAD ID: 62317 Int'l Des: 2024-239 Owner: SPXS Country: US Constellation: starlink
LEOCIRCULAR

Über Starlink 32519

Beschreibung wird geladen...

Live-Position

3D-Globus wird geladen...

Nächste Überflüge

Höhenverlauf

Altitude vs Time

uPlot chart will show altitude changes over time

Zweizeiliger Elementsatz

1 62317U 24239S 26095.30735175 .00012471 00000-0 43247-3 0 9990
2 62317 53.1597 57.1788 0001283 96.0387 264.0760 15.30201237 73643
Epoch: 5. Apr. 2026 • Age: 14 hours

Aktueller Status

Höhe 478.3 km
Geschwindigkeit 7.63 km/s
Subsatellitenpunkt 40.62°N, 65.88°W
Startdatum 13. Dez. 2024
Alter 1.3 years
Typ internet

Technische Details

Klassifizierung Payload
Masse 730.00 kg
Trockenmasse 700.00 kg
Gesamtmasse 730.00 kg
Länge 0.30 m
Durchmesser 4.10 m
Spannweite 29.00 m
Form Box + pan
Hersteller SPXS
Bus-Typ Starlink V2M
Phasenstatus In Orbit
Besitzer/Staat SPXS/US

Große Konstellationen

Loading constellations...